Location: Nitra
(48.3167°N, 18.0833°E)
Time: 02:43:49
(UTC+01:00)

ISS - Visible Passes

Search period start: 16 December 2017 00:00
Search period end: 26 December 2017 00:00
Orbit: 402 x 406 km, 51.6° (Epoch: 16 December)

Date Brightness Start Highest point End Pass type
(mag) Time Alt. Az. Time Alt. Az. Time Alt. Az.
16 Dec -1.6 17:05:07 10° W 17:07:58 28° SW 17:10:49 10° SSE visible
18 Dec -0.5 16:57:48 10° WSW 16:59:39 14° SW 17:01:30 10° S visible
24 Dec 0.0 06:56:06 10° SSE 06:56:57 11° SE 06:57:49 10° ESE visible
